DIRECTV 7S (28238 NORAD) Tracking and Keplerian Element Data

This shows tracking and keplerian element data for the satellite.

Feedback or suggestion? Click here.




ElementValue
Catalog28238
NameDIRECTV 7S
Epoch Orbit5208
Epoch Day198.89036752
Epoch Year2018
RAAN70.5466
Inclination0.0193
Eccentricity0.0002858
Argument of Perigee43.9971
Mean Anonmoly22.5593
Mean Motion1.00272534
Decay Rate-1.8E-07
L11 28238U 04016A 18198.89036752 -.00000018 00000-0 00000-0 0 9991
L22 28238 0.0193 70.5466 0002858 43.9971 22.5593 1.00272534 52087

Live tracking and technical data element details for DIRECTV 7S (NORAD 28238). DIRECTV 7S can be tracked NOW for your location showing map with azimuth and elevation plus other details from your city location.

Track the satellite on the map from your city or location and see movement details for azimuth, elevation, latitude, longitude, range, height, and movement on the map or in text.







IsCatalogInMostPopularTable: catalog: 28238, numindb: 40
Update: records affected: 1



GetName: 28238 DIRECTV 7S

Hit Count: updated at: Sat, 21 Jul 2018 07:43:06 GMT